QPF
0.00 0.00 0.00 0.00 0.00 0.00 0.00 0.00 0.00 0.00 0.00 0.03 0.13 0.18 0.19 0.18 0.10 0.08 0.09 0.05 0.02 0.01
0.00 0.00 0.00 0.00 0.00 0.00 0.00 0.00 0.00 0.00 0.00 0.01 0.05 0.10 0.12 0.16 0.16 0.12 0.09 0.05 0.02 0.02
0.00 0.00 0.00 0.00 0.00 0.00 0.00 0.00 0.00 0.00 0.00 0.00 0.01 0.03 0.07 0.09 0.08 0.10 0.07 0.07 0.04 0.01
0.01 0.00 0.00 0.00 0.00 0.00 0.00 0.00 0.00 0.00 0.00 0.00 0.00 0.01 0.01 0.03 0.04 0.01 0.02 0.02 0.01 0.00
0.01 0.00 0.00 0.00 0.00 0.00 0.00 0.00 0.00 0.00 0.00 0.00 0.01 0.00 0.01 0.02 0.05 0.07 0.03 0.02 0.01 0.00
0.01 0.00 0.00 0.00 0.00 0.00 0.00 0.00 0.01 0.01 0.00 0.00 0.00 0.01 0.02 0.01 0.01 0.02 0.01 0.02 0.02 0.01
0.03 0.01 0.01 0.00 0.01 0.00 0.00 0.00 0.00 0.01 0.00 0.00 0.00 0.00 0.01 0.01 0.00 0.00 0.00 0.00 0.00 0.00
0.06 0.04 0.02 0.01 0.01 0.01 0.01 0.01 0.01 0.02 0.03 0.02 0.00 0.00 0.00 0.00 0.00 0.00 0.00 0.00 0.00 0.00
0.09 0.07 0.04 0.02 0.01 0.02 0.00 0.00 0.01 0.01 0.00 0.00 0.01 0.02 0.00 0.00 0.00 0.00 0.01 0.01 0.01 0.00
0.08 0.06 0.03 0.02 0.02 0.01 0.00 0.00 0.01 0.01 0.00 0.00 0.01 0.02 0.01 0.01 0.01 0.03 0.05 0.02 0.02 0.03
0.12 0.08 0.05 0.04 0.04 0.02 0.00 0.00 0.01 0.01 0.01 0.00 0.01 0.01 0.00 0.01 0.00 0.00 0.01 0.01 0.01 0.00
0.21 0.17 0.13 0.13 0.12 0.11 0.08 0.04 0.02 0.02 0.02 0.02 0.02 0.03 0.02 0.01 0.01 0.02 0.03 0.05 0.06 0.06
0.24 0.35 0.35 0.44 0.41 0.31 0.27 0.29 0.21 0.18 0.16 0.12 0.07 0.10 0.10 0.11 0.12 0.15 0.16 0.15 0.13 0.16
0.32 0.36 0.39 0.41 0.44 0.51 0.45 0.36 0.32 0.28 0.25 0.23 0.19 0.14 0.14 0.17 0.17 0.17 0.13 0.10 0.05 0.01
MSLP
1002.23 1002.70 1003.18 1003.85 1004.68 1005.86 1006.38 1007.32 1008.10 1008.54 1009.25 1009.41 1009.60 1009.95 1010.51 1010.80 1011.41 1012.37 1013.25 1013.69 1013.94 1014.42
1001.89 1002.17 1002.68 1003.56 1004.38 1005.48 1006.38 1006.96 1007.73 1008.48 1009.21 1009.45 1009.74 1009.99 1010.40 1010.67 1011.37 1012.25 1013.13 1013.51 1013.88 1014.38
1001.70 1001.79 1002.42 1003.39 1004.34 1005.15 1006.11 1006.66 1007.44 1008.36 1009.04 1009.52 1009.75 1010.15 1010.53 1011.07 1011.73 1012.43 1013.12 1013.58 1014.06 1014.38
1001.74 1001.76 1002.43 1003.43 1004.12 1004.82 1005.58 1006.34 1007.03 1007.97 1008.81 1009.35 1009.73 1010.30 1010.73 1011.19 1011.77 1012.43 1012.98 1013.48 1013.83 1014.14
1002.07 1002.17 1002.70 1003.59 1004.11 1004.62 1005.40 1006.13 1006.74 1007.56 1008.58 1009.19 1009.55 1010.02 1010.46 1011.04 1011.46 1011.97 1012.51 1012.99 1013.50 1013.85
1002.71 1002.72 1003.00 1003.65 1004.07 1004.51 1005.21 1005.85 1006.64 1007.43 1008.27 1008.97 1009.48 1009.91 1010.32 1010.78 1011.31 1011.61 1012.03 1012.50 1012.93 1013.30
1003.22 1003.24 1003.62 1003.90 1004.11 1004.56 1005.08 1005.58 1006.33 1007.07 1007.93 1008.76 1009.32 1009.74 1010.06 1010.61 1010.95 1011.46 1011.81 1012.16 1012.71 1012.88
1004.12 1003.95 1004.11 1004.51 1004.55 1004.79 1005.14 1005.68 1006.03 1006.70 1007.62 1008.42 1009.30 1010.37 1010.22 1010.30 1010.79 1011.06 1011.27 1011.55 1011.89 1012.30
1005.86 1005.50 1005.63 1005.83 1005.57 1005.91 1006.31 1006.76 1007.22 1007.91 1008.62 1009.76 1010.87 1011.28 1010.99 1010.65 1010.46 1010.71 1010.81 1011.12 1011.15 1011.47
1007.85 1007.43 1007.49 1007.72 1007.87 1007.54 1007.85 1008.42 1009.14 1009.75 1010.23 1010.97 1011.62 1011.50 1011.17 1010.83 1010.75 1011.23 1011.68 1011.99 1012.07 1012.45
1009.64 1009.30 1009.33 1009.58 1009.89 1009.96 1009.89 1010.10 1010.59 1011.01 1011.53 1011.79 1012.15 1011.66 1010.93 1010.97 1011.42 1012.20 1012.96 1013.32 1013.47 1013.74
1011.59 1011.15 1011.01 1011.40 1011.91 1012.13 1011.83 1012.05 1012.09 1012.26 1012.59 1012.75 1012.87 1012.27 1011.95 1012.09 1012.87 1013.56 1014.16 1014.57 1014.70 1014.75
1013.04 1012.91 1012.57 1012.87 1013.70 1014.07 1013.45 1013.63 1013.64 1013.57 1013.76 1014.25 1014.17 1013.43 1013.17 1013.11 1013.62 1014.52 1015.37 1015.42 1015.76 1015.74
1014.65 1014.08 1014.08 1013.87 1014.85 1015.77 1014.47 1014.34 1014.91 1014.74 1015.77 1014.96 1015.75 1014.49 1014.95 1014.45 1014.19 1015.24 1015.52 1016.11 1016.77 1017.06
Thickness
5676 5674 5673 5671 5667 5657 5651 5642 5635 5630 5623 5619 5616 5612 5608 5610 5609 5606 5602 5602 5605 5604
5670 5671 5669 5666 5663 5654 5645 5640 5633 5627 5619 5616 5612 5611 5608 5608 5606 5603 5599 5601 5601 5599
5663 5664 5663 5660 5655 5651 5641 5638 5631 5623 5617 5613 5610 5607 5605 5602 5601 5598 5595 5594 5593 5594
5654 5656 5655 5652 5650 5647 5641 5634 5629 5621 5616 5611 5608 5604 5601 5598 5596 5593 5592 5590 5591 5592
5642 5646 5645 5644 5644 5642 5636 5630 5626 5620 5613 5608 5606 5603 5601 5597 5596 5594 5592 5591 5589 5588
5628 5633 5633 5634 5637 5636 5632 5628 5622 5616 5610 5605 5602 5600 5599 5597 5594 5593 5591 5590 5588 5587
5616 5620 5620 5624 5628 5629 5627 5624 5619 5613 5608 5602 5599 5597 5597 5594 5593 5591 5590 5588 5585 5585
5600 5607 5610 5612 5617 5621 5620 5616 5615 5611 5605 5602 5597 5588 5590 5592 5589 5589 5589 5587 5586 5584
5575 5583 5587 5591 5600 5602 5602 5600 5596 5592 5589 5583 5575 5573 5575 5580 5587 5586 5585 5585 5586 5585
5551 5559 5562 5565 5571 5578 5579 5575 5571 5568 5567 5564 5562 5564 5568 5570 5576 5572 5570 5569 5570 5568
5527 5535 5538 5541 5544 5548 5552 5553 5551 5550 5548 5549 5550 5555 5562 5563 5560 5554 5549 5547 5548 5547
5503 5510 5515 5517 5518 5519 5526 5526 5529 5530 5530 5531 5531 5538 5543 5543 5537 5533 5530 5529 5529 5530
5482 5489 5495 5495 5492 5492 5500 5501 5501 5507 5508 5506 5509 5516 5518 5520 5520 5515 5510 5510 5509 5510
5459 5471 5474 5478 5470 5466 5479 5484 5479 5485 5479 5486 5480 5492 5489 5494 5498 5496 5494 5491 5488 5485